Weather in Kisumu

Kenya     0°06′02″N   34°46′17″E
temp.,
°C
wind,
m/s
gust,
m/s
humid.,
%
clouds,
%
prec.,
mm/h
press.,
hPa
HPBL,
m
17 may, mon
mon1700:00+17ene2286100 0.4 101425
03:00+16ene118679 0.4 101323
06:00+16ne2285100 0.0 101428
09:00+21ne127697 0.0 1014233
12:00+25wsw136417 0.0 10121143
15:00+25w3466100 0.4 10091076
18:00+21wnw1184100 4.7 101226
21:00+17nne229186 10.6 101418
18 may, tue
tue1800:00+18ssw019197 2.2 101424
03:00+17ne119190 2.4 101323
06:00+16ene119060 0.1 101422
09:00+21ese118198 0.3 1016169
12:00+24ssw217267 1.4 1014713
15:00+25wsw2368100 2.1 1011855
18:00+21wsw1184100 4.4 101316
21:00+18ne2288100 7.8 101415
19 may, wed
wed1900:00+17ne118639 0.1 101523
03:00+16ne118846 0.1 101322
06:00+16nne228794 0.0 101426
09:00+21e117897 0.0 1015248
12:00+24sw2270100 0.2 1013884
15:00+25wnw336581 0.9 10101170
18:00+21nnw1183100 3.6 101217
21:00+18ne118496 5.6 101415
20 may, thu
thu2000:00+17nne118618 0.1 101516
03:00+16ne1188100 0.2 101424
06:00+16ne2288100 0.0 101531
09:00+20ne1178100 0.0 1016234
12:00+24w2268100 0.1 10141032
15:00+25w3366100 0.7 10111170
18:00+21wnw348678 0.9 1012119
21:00+17n119382 2.9 101627
21 may, fri
fri2100:00+17ne229195 0.4 101624
03:00+16ne228988 0.4 101523
06:00+16ene229034 0.0 101626
09:00+21ene118036 0.0 1017250
12:00+24ssw216898 0.4 1015921
15:00+24w336741 1.7 10121027
18:00+21wsw238453 2.7 101379
21:00+18nne119090 7.4 101620